Location: GMARS
(34.2910°N, 116.3838°W)
Time: 16:11:42
(UTC-08:00)

Envisat - Pass Details

Date: 29 October 2019
Orbit: 764 x 766 km, 98.1° (Epoch: 20 November)

Event Time Altitude Azimuth Distance (km) Brightness Sun altitude
Rises 19:53:00 0° 200° (SSW) 3,215 6.5 -24.8°
Reaches altitude 10° 19:55:48 10° 216° (SW) 2,294 5.9 -25.4°
Maximum altitude 19:59:38 22° 265° (W) 1,640 5.5 -26.2°
Drops below altitude 10° 20:03:29 10° 315° (NW) 2,304 6.0 -27.0°
Sets 20:06:19 0° 331° (NNW) 3,234 6.6 -27.6°
